sat.trackr.live / text

‹ back to catalog

AETHER-10

NORAD 67381 · 2026-004U

PAYLOAD ACTIVE UNKNOWN

§ Identity

Operator
Country
CA
Launch date
2026-01-11
Launch site
AFWTR
Launch vehicle
Mass (kg)
RCS (m²)

External: N2YO · Heavens-Above · Gunter

§ Orbital elements

Epoch: 2026-05-24T22:52:00.711264Z

Period
96.76 min
Inclination
97.8040°
Eccentricity
0.0005001
Mean motion
14.88239933 rev/d
Perigee alt
599.9 km
Apogee alt
606.9 km
Semi-major
6,981.6 km
B*
7.3380e-5
RAAN
144.0234°
Arg perigee
181.4491°
Mean anomaly
178.6712°
Rev number
1,983

§ Raw data

AETHER-101 67381U 26004U   26144.95278601  .00000623  00000+0  73380-4 0  99972 67381  97.8040 144.0234 0005001 181.4491 178.6712 14.88239933 19830

JSON: /api/v1/satellites/67381 · /tle

For live sub-satellite position, see the globe view (requires WebGL).

§ Visibility from observer

Set your observer location to see the next 7 days of passes ≥ 10°. The values pass through the URL so the page stays shareable.

No JS? Fill the form by hand. The geolocation button needs JavaScript.